User: anonymous   Login
Location: Unspecified
(0.0000°N, 0.0000°E)
Time: 08:17:55
(UTC+00:00)
Language:

NAVSTAR 65 (USA 213) - Orbit

View from above orbital plane
View from above orbital plane
View from above satellite
View from above satellite

Ground track
Ground track

The orbit data is extracted from the following two-line orbital elements,

1 36585U 10022A   17348.09225803 -.00000076  00000-0  00000+0 0  9997
2 36585  55.9084 333.4875 0066464  44.5867 156.8542  2.00559208 55263
Epoch (UTC): 14 December 2017 02:12:51
Eccentricity: 0.0066464
inclination: 55.9084°
perigee height: 20006 km
apogee height: 20359 km
right ascension of ascending node: 333.4875°
argument of perigee: 44.5867°
revolutions per day: 2.00559208
mean anomaly at epoch: 156.8542°
orbit number at epoch: 5526

The dashed part of the orbit path shows where the satellite is in the earth's shadow,  

DLR